TimeEDT,TemperatureF,Dew PointF,Humidity,Sea Level PressureIn,VisibilityMPH,Wind Direction,Wind SpeedMPH,Gust SpeedMPH,PrecipitationIn,Events,Conditions,WindDirDegrees,DateUTC
12:14 AM,37.4,30.2,75,30.09,10.0,West,10.4,-,N/A,,Overcast,280,2013-03-27 04:14:00
12:34 AM,35.6,30.2,81,30.09,10.0,West,9.2,-,N/A,,Overcast,280,2013-03-27 04:34:00
12:54 AM,35.6,30.2,81,30.09,10.0,WNW,9.2,-,N/A,,Overcast,290,2013-03-27 04:54:00
1:14 AM,35.6,28.4,75,30.09,10.0,WNW,10.4,-,N/A,,Overcast,290,2013-03-27 05:14:00
1:34 AM,35.6,28.4,75,30.09,10.0,WNW,11.5,-,N/A,,Overcast,290,2013-03-27 05:34:00
1:54 AM,35.6,28.4,75,30.09,10.0,WNW,8.1,-,N/A,,Overcast,290,2013-03-27 05:54:00
2:14 AM,35.6,28.4,75,30.09,10.0,WNW,9.2,-,N/A,,Overcast,300,2013-03-27 06:14:00
2:34 AM,35.6,28.4,75,30.09,10.0,WNW,10.4,-,N/A,,Overcast,300,2013-03-27 06:34:00
2:55 AM,35.6,28.4,75,30.09,10.0,WNW,10.4,-,N/A,,Overcast,290,2013-03-27 06:55:00
3:14 AM,35.6,28.4,75,30.09,10.0,WNW,10.4,-,N/A,,Overcast,300,2013-03-27 07:14:00
3:34 AM,35.6,26.6,70,30.09,10.0,NW,11.5,-,N/A,,Overcast,310,2013-03-27 07:34:00
3:54 AM,35.6,26.6,70,30.09,10.0,NW,11.5,-,N/A,,Overcast,310,2013-03-27 07:54:00
4:14 AM,35.6,26.6,70,30.09,10.0,NW,11.5,16.1,N/A,,Overcast,310,2013-03-27 08:14:00
4:34 AM,33.8,26.6,75,30.09,10.0,WNW,9.2,-,N/A,,Scattered Clouds,300,2013-03-27 08:34:00
4:54 AM,33.8,26.6,75,30.10,10.0,WNW,8.1,-,N/A,,Clear,300,2013-03-27 08:54:00
5:14 AM,33.8,26.6,75,30.10,10.0,WNW,9.2,-,N/A,,Clear,300,2013-03-27 09:14:00
5:34 AM,32.0,26.6,80,30.10,10.0,WNW,9.2,-,N/A,,Clear,290,2013-03-27 09:34:00
5:54 AM,32.0,26.6,80,30.11,10.0,WNW,9.2,-,N/A,,Clear,300,2013-03-27 09:54:00
6:14 AM,30.2,26.6,86,30.11,10.0,WNW,10.4,-,N/A,,Clear,290,2013-03-27 10:14:00
6:34 AM,30.2,24.8,80,30.11,10.0,WNW,8.1,-,N/A,,Clear,290,2013-03-27 10:34:00
6:54 AM,30.2,24.8,80,30.11,10.0,West,6.9,-,N/A,,Clear,280,2013-03-27 10:54:00
7:14 AM,30.2,24.8,80,30.12,10.0,West,8.1,-,N/A,,Scattered Clouds,270,2013-03-27 11:14:00
7:35 AM,30.2,24.8,80,30.12,10.0,West,5.8,-,N/A,,Scattered Clouds,270,2013-03-27 11:35:00
7:54 AM,30.2,24.8,80,30.13,10.0,West,6.9,-,N/A,,Clear,280,2013-03-27 11:54:00
8:14 AM,32.0,24.8,75,30.13,10.0,West,9.2,-,N/A,,Clear,280,2013-03-27 12:14:00
8:34 AM,33.8,24.8,70,30.13,10.0,West,9.2,-,N/A,,Clear,280,2013-03-27 12:34:00
8:54 AM,33.8,24.8,70,30.14,10.0,WNW,11.5,16.1,N/A,,Clear,290,2013-03-27 12:54:00
9:15 AM,35.6,24.8,65,30.14,10.0,NW,15.0,18.4,N/A,,Scattered Clouds,310,2013-03-27 13:15:00
9:34 AM,35.6,24.8,65,30.14,10.0,WNW,11.5,20.7,N/A,,Clear,300,2013-03-27 13:34:00
9:54 AM,37.4,24.8,60,30.14,10.0,WNW,12.7,20.7,N/A,,Scattered Clouds,290,2013-03-27 13:54:00
10:14 AM,37.4,24.8,60,30.13,10.0,WNW,15.0,-,N/A,,Scattered Clouds,300,2013-03-27 14:14:00
10:34 AM,39.2,24.8,56,30.14,10.0,NW,12.7,-,N/A,,Clear,310,2013-03-27 14:34:00
10:54 AM,41.0,24.8,53,30.14,10.0,WNW,13.8,21.9,N/A,,Clear,290,2013-03-27 14:54:00
11:14 AM,42.8,24.8,49,30.14,10.0,NW,16.1,21.9,N/A,,Clear,310,2013-03-27 15:14:00
11:34 AM,42.8,24.8,49,30.14,10.0,WNW,13.8,23.0,N/A,,Scattered Clouds,300,2013-03-27 15:34:00
11:54 AM,42.8,24.8,49,30.14,10.0,NW,15.0,19.6,N/A,,Mostly Cloudy,320,2013-03-27 15:54:00
12:14 PM,44.6,23.0,43,30.14,10.0,WNW,15.0,20.7,N/A,,Overcast,300,2013-03-27 16:14:00
12:34 PM,44.6,21.2,39,30.14,10.0,NW,13.8,24.2,N/A,,Overcast,320,2013-03-27 16:34:00
12:54 PM,46.4,23.0,40,30.14,10.0,WNW,13.8,20.7,N/A,,Mostly Cloudy,290,2013-03-27 16:54:00
1:14 PM,46.4,21.2,37,30.14,10.0,WNW,13.8,21.9,N/A,,Mostly Cloudy,290,2013-03-27 17:14:00
1:34 PM,48.2,23.0,37,30.13,10.0,WNW,13.8,21.9,N/A,,Mostly Cloudy,300,2013-03-27 17:34:00
1:54 PM,48.2,23.0,37,30.13,10.0,WNW,10.4,19.6,N/A,,Mostly Cloudy,300,2013-03-27 17:54:00
2:14 PM,46.4,21.2,37,30.12,10.0,WNW,17.3,21.9,N/A,,Overcast,290,2013-03-27 18:14:00
2:34 PM,46.4,21.2,37,30.12,10.0,WNW,13.8,20.7,N/A,,Overcast,290,2013-03-27 18:34:00
2:54 PM,46.4,21.2,37,30.12,10.0,West,12.7,-,N/A,,Overcast,280,2013-03-27 18:54:00
3:14 PM,46.4,19.4,34,30.12,10.0,NW,16.1,21.9,N/A,,Overcast,310,2013-03-27 19:14:00
3:34 PM,46.4,19.4,34,30.12,10.0,WNW,12.7,19.6,N/A,,Overcast,290,2013-03-27 19:34:00
3:54 PM,46.4,19.4,34,30.12,10.0,WNW,11.5,18.4,N/A,,Overcast,300,2013-03-27 19:54:00
4:14 PM,46.4,19.4,34,30.11,10.0,West,9.2,18.4,N/A,,Overcast,280,2013-03-27 20:14:00
4:35 PM,46.4,19.4,34,30.11,10.0,WNW,12.7,18.4,N/A,,Overcast,290,2013-03-27 20:35:00
4:54 PM,46.4,19.4,34,30.11,10.0,WNW,15.0,18.4,N/A,,Overcast,290,2013-03-27 20:54:00
5:14 PM,46.4,19.4,34,30.11,10.0,West,12.7,18.4,N/A,,Overcast,280,2013-03-27 21:14:00
5:34 PM,46.4,19.4,34,30.11,10.0,WNW,10.4,-,N/A,,Overcast,290,2013-03-27 21:34:00
5:54 PM,46.4,19.4,34,30.12,10.0,WNW,10.4,-,N/A,,Overcast,300,2013-03-27 21:54:00
6:14 PM,46.4,19.4,34,30.12,10.0,WNW,10.4,20.7,N/A,,Overcast,300,2013-03-27 22:14:00
6:34 PM,46.4,21.2,37,30.12,10.0,WNW,12.7,-,N/A,,Overcast,290,2013-03-27 22:34:00
6:54 PM,44.6,21.2,39,30.12,10.0,WNW,13.8,20.7,N/A,,Overcast,290,2013-03-27 22:54:00
7:14 PM,44.6,21.2,39,30.13,10.0,WNW,12.7,20.7,N/A,,Overcast,290,2013-03-27 23:14:00
7:34 PM,44.6,21.2,39,30.13,10.0,WNW,12.7,-,N/A,,Overcast,290,2013-03-27 23:34:00
7:54 PM,44.6,23.0,43,30.13,10.0,WNW,11.5,20.7,N/A,,Overcast,290,2013-03-27 23:54:00
8:14 PM,44.6,23.0,43,30.13,10.0,West,13.8,19.6,N/A,,Overcast,280,2013-03-28 00:14:00
8:34 PM,42.8,24.8,49,30.14,10.0,West,10.4,20.7,N/A,,Overcast,280,2013-03-28 00:34:00
8:54 PM,42.8,24.8,49,30.15,10.0,West,10.4,-,N/A,,Scattered Clouds,280,2013-03-28 00:54:00
9:15 PM,41.0,24.8,53,30.15,10.0,WNW,11.5,16.1,N/A,,Scattered Clouds,290,2013-03-28 01:15:00
9:34 PM,41.0,24.8,53,30.16,10.0,West,9.2,-,N/A,,Scattered Clouds,280,2013-03-28 01:34:00
9:54 PM,41.0,24.8,53,30.16,10.0,West,10.4,16.1,N/A,,Overcast,270,2013-03-28 01:54:00
10:14 PM,41.0,24.8,53,30.17,10.0,West,12.7,18.4,N/A,,Overcast,280,2013-03-28 02:14:00
10:34 PM,39.2,24.8,56,30.17,10.0,West,12.7,-,N/A,,Overcast,280,2013-03-28 02:34:00
10:54 PM,39.2,24.8,56,30.17,10.0,West,12.7,17.3,N/A,,Overcast,270,2013-03-28 02:54:00
11:14 PM,39.2,24.8,56,30.17,10.0,West,10.4,16.1,N/A,,Overcast,280,2013-03-28 03:14:00
11:34 PM,39.2,24.8,56,30.17,10.0,West,10.4,-,N/A,,Overcast,280,2013-03-28 03:34:00
11:54 PM,39.2,23.0,52,30.18,10.0,WNW,11.5,17.3,N/A,,Overcast,290,2013-03-28 03:54:00